• Join FlightAware (Why Join?)
  • Login
  • US Flag 
05:59AM EST


 

Airport Tracker/Info


-or-


 

Live Flight TrackerFlight Track Log ✈ UAL5914 ✈ 21-Nov-2013 ✈ KALB - KORD

Flight Track Log - Related Links

Times and Time Zones

All times are in EST time to prevent confusion due to time zone crossing. See the UAL5914 flight status page for this flight to view local times or setup timezone preferences in your user account.

Time Position Orientation Groundspeed Altitude Reporting Facility
EST Latitude Longitude Course Direction KTS MPH feet Rate Location/Type
02:05PM 42.7256 -73.8031 178° South 151 174 1,300  Level Boston Center
02:06PM 42.7042 -73.8019 178° South 152 175 2,100 1,694 Climbing Boston Center
02:07PM 42.6750 -73.8436 226° Southwest 210 242 3,700 1,966 Climbing Boston Center
02:08PM 42.7297 -73.8933 326° Northwest 239 275 5,900 2,115 Climbing Boston Center
02:09PM 42.7950 -73.9447 330° Northwest 267 307 8,000 2,262 Climbing Boston Center
02:10PM 42.8675 -74.0011 330° Northwest 276 318 10,500 1,742 Climbing Boston Center
02:11PM 42.9397 -74.0561 331° Northwest 297 342 11,600 1,073 Climbing Boston Center
02:12PM 43.0206 -74.1178 331° Northwest 329 379 12,700 1,289 Climbing Boston Center
02:13PM 43.1031 -74.1819 330° Northwest 341 392 14,200 1,452 Climbing Boston Center
02:14PM 43.1664 -74.2783 312° West 322 371 15,700 1,403 Climbing Boston Center
02:15PM 43.1689 -74.3994 272° West 317 365 17,100 1,016 Climbing Boston Center
02:16PM 43.1694 -74.5133 270° West 317 365 17,800 1,016 Climbing Boston Center
02:17PM 43.1694 -74.6356 270° West 320 368 19,200 1,377 Climbing Boston Center
02:18PM 43.1689 -74.7578 270° West 320 368 20,600 1,388 Climbing Boston Center
02:19PM 43.1689 -74.8797 270° West 320 368 22,000 1,258 Climbing Boston Center
02:20PM 43.1692 -75.0286 270° West 326 375 23,200 1,113 Climbing Boston Center
02:21PM 43.1692 -75.1556 270° West 330 380 24,300 1,041 Climbing Boston Center
02:22PM 43.1669 -75.2836 269° West 332 382 25,300 919 Climbing Boston Center
02:23PM 43.1669 -75.4122 270° West 333 383 26,200 919 Climbing Boston Center
02:24PM 43.1664 -75.5392 270° West 332 382 27,200 992 Climbing Boston Center
02:25PM 43.1658 -75.6656 270° West 330 380 28,200 968 Climbing Boston Center
02:26PM 43.1658 -75.7892 270° West 325 374 29,200 968 Climbing Boston Center
02:27PM 43.1642 -75.9131 269° West 325 374 30,200 942 Climbing Boston Center
02:28PM 43.1642 -76.0375 270° West 325 374 31,100 934 Climbing Boston Center
02:29PM 43.1608 -76.1636 268° West 331 381 32,100 968 Climbing Boston Center
02:30PM 43.1611 -76.2875 270° West 325 374 33,100 1,065 Climbing Boston Center
02:31PM 43.1606 -76.4367 270° West 326 375 34,300 1,140 Climbing Boston Center
02:32PM 43.1500 -76.4833 253° West 320 368 35,000 836 Climbing Toronto Center
02:33PM 43.1611 -76.6786 275° West 320 368 36,000 414 Climbing Cleveland Center
02:34PM 43.1575 -76.8144 268° West 322 371 36,000  Level Cleveland Center
02:35PM 43.1581 -76.9464 270° West 341 392 36,000  Level Cleveland Center
02:36PM 43.1569 -77.0819 269° West 356 410 36,000  Level Cleveland Center
02:37PM 43.1567 -77.2228 270° West 368 423 36,000  Level Cleveland Center
02:39PM 43.1556 -77.3633 269° West 372 428 36,000  Level Cleveland Center
02:40PM 43.1547 -77.5031 270° West 370 426 36,000  Level Cleveland Center
02:41PM 43.1519 -77.6689 269° West 368 423 36,000  Level Cleveland Center
02:42PM 43.1506 -77.8072 269° West 366 421 36,000  Level Cleveland Center
02:43PM 43.1483 -77.9469 269° West 369 425 36,000  Level Cleveland Center
02:44PM 43.1461 -78.0867 269° West 370 426 36,000  Level Cleveland Center
02:45PM 43.1447 -78.2264 269° West 368 423 36,000  Level Cleveland Center
02:46PM 43.1408 -78.3947 268° West 371 427 36,000  Level Cleveland Center
02:47PM 43.1372 -78.5378 268° West 379 436 36,000  Level Cleveland Center
02:48PM 43.1331 -78.6778 268° West 372 428 36,000  Level Cleveland Center
02:49PM 43.1283 -78.8192 267° West 373 429 36,000  Level Cleveland Center
02:50PM 43.1250 -78.9600 268° West 372 428 36,000  Level Cleveland Center
02:51PM 43.1203 -79.1006 267° West 376 433 36,000  Level Cleveland Center
02:52PM 43.1156 -79.2400 267° West 370 426 36,000  Level Cleveland Center
02:53PM 43.1111 -79.3797 268° West 369 425 36,000  Level Cleveland Center
02:54PM 43.1069 -79.5194 268° West 369 425 36,000  Level Cleveland Center
02:55PM 43.1017 -79.6572 267° West 365 420 36,000  Level Cleveland Center
02:56PM 43.0961 -79.7950 267° West 362 417 36,000  Level Cleveland Center
02:57PM 43.0897 -79.9614 267° West 366 421 36,000  Level Cleveland Center
02:58PM 43.0853 -80.0894 267° West 360 414 36,000  Level Cleveland Center
02:59PM 43.0794 -80.2283 267° West 362 417 36,000  Level Cleveland Center
03:00PM 43.0731 -80.3656 266° West 361 415 36,000  Level Cleveland Center
03:01PM 43.0664 -80.5250 267° West 358 412 36,000  Level Cleveland Center
03:02PM 43.0603 -80.6628 267° West 360 414 36,000  Level Cleveland Center
03:03PM 43.0536 -80.8006 266° West 361 415 36,000  Level Cleveland Center
03:04PM 43.0333 -80.9167 257° West 360 414 36,000  Level Toronto Center
03:05PM 43.0167 -81.0500 260° West 360 414 36,000  Level Toronto Center
03:06PM 43.0167 -81.1833 270° West 360 414 36,000  Level Toronto Center
03:07PM 43.0167 -81.3167 270° West 360 414 36,000  Level Toronto Center
03:08PM 43.0167 -81.4333 270° West 360 414 36,000  Level Toronto Center
03:09PM 43.0167 -81.6000 270° West 360 414 36,000  Level Toronto Center
03:10PM 43.0167 -81.7000 270° West 360 414 36,000  Level Toronto Center
03:11PM 43.0167 -81.8500 270° West 350 403 36,000  Level Toronto Center
03:12PM 43.0000 -81.9833 260° West 350 403 36,000  Level Toronto Center
03:13PM 43.0000 -82.1167 270° West 340 391 36,000  Level Toronto Center
03:14PM 43.0000 -82.2500 270° West 340 391 36,000  Level Toronto Center
03:15PM 43.0000 -82.3667 270° West 340 391 36,000  Level Toronto Center
03:16PM 43.0000 -82.5000 270° West 330 380 36,000  Level Toronto Center
03:17PM 43.0000 -82.6167 270° West 330 380 36,000  Level Toronto Center
03:18PM 43.0017 -82.7122 271° West 332 382 36,000  Level Cleveland Center
03:19PM 42.9983 -82.8389 268° West 336 387 36,000  Level Cleveland Center
03:20PM 42.9933 -82.9669 267° West 338 389 36,000  Level Cleveland Center
03:21PM 42.9900 -83.0947 268° West 338 389 36,000  Level Cleveland Center
03:22PM 42.9839 -83.2481 267° West 338 389 36,000  Level Cleveland Center
03:23PM 42.9806 -83.3767 268° West 341 392 36,000 -435 Level Cleveland Center
03:24PM 42.9761 -83.5033 267° West 338 389 35,100 -1,161 Descending Cleveland Center
03:25PM 42.9717 -83.6256 267° West 328 377 33,600 -1,452 Descending Cleveland Center
03:26PM 42.9658 -83.7547 267° West 339 390 32,100 -1,548 Descending Cleveland Center
03:27PM 42.9503 -83.9156 263° West 358 412 30,400 -1,548 Descending Cleveland Center
03:28PM 42.9381 -84.0533 263° West 366 421 28,900 -1,152 Descending Cleveland Center
03:29PM 42.9233 -84.1972 262° West 381 438 28,000 -432 Descending Cleveland Center
03:30PM 42.9069 -84.3531 262° West 387 445 28,000  Level Cleveland Center
03:31PM 42.8933 -84.4967 263° West 385 443 28,000  Level Chicago Center
03:32PM 42.8772 -84.6419 261° West 387 445 28,000  Level Chicago Center
03:33PM 42.8639 -84.7867 263° West 386 444 28,000  Level Chicago Center
03:34PM 42.8483 -84.9300 262° West 384 442 28,000  Level Chicago Center
03:35PM 42.8292 -85.1033 261° West 385 443 28,000  Level Chicago Center
03:36PM 42.8142 -85.2478 262° West 384 442 28,000  Level Chicago Center
03:37PM 42.7981 -85.3933 261° West 388 447 28,000  Level Chicago Center
03:38PM 42.7800 -85.5372 260° West 385 443 28,000 -290 Level Chicago Center
03:39PM 42.7536 -85.6800 256° West 387 445 27,400 -1,258 Descending Chicago Center
03:40PM 42.7275 -85.8289 257° West 399 459 25,400 -2,081 Descending Chicago Center
03:41PM 42.6997 -85.9756 256° West 398 458 23,100 -2,448 Descending Chicago Center
03:42PM 42.6692 -86.1469 256° West 388 447 20,300 -1,536 Descending Chicago Center
03:44PM 42.6439 -86.2825 256° West 375 432 19,900 -871 Descending Chicago Center
03:45PM 42.6178 -86.4172 255° West 369 425 18,500 -1,548 Descending Chicago Center
03:46PM 42.5928 -86.5478 255° West 359 413 16,700 -1,839 Descending Chicago Center
03:47PM 42.5683 -86.6761 256° West 354 407 14,700 -1,935 Descending Chicago Center
03:48PM 42.5400 -86.8064 254° West 362 417 12,700 -2,081 Descending Chicago Center
03:49PM 42.4992 -86.9533 249° West 348 400 10,400 -1,306 Descending Chicago Center
03:50PM 42.4678 -87.0661 249° West 323 372 10,000 -290 Descending Chicago Center
03:51PM 42.4397 -87.1664 249° West 288 331 9,800 -968 Descending Chicago Center
03:52PM 42.3861 -87.2164 215° Southwest 249 287 8,000 -1,742 Descending Chicago Center
03:53PM 42.3214 -87.2544 203° Southwest 253 291 6,200 -1,065 Descending Chicago Center
03:54PM 42.2508 -87.3008 206° Southwest 252 290 5,800 -576 Descending Chicago Center
03:55PM 42.1831 -87.3253 195° South 253 291 5,000 -576 Descending Chicago Center
03:56PM 42.1181 -87.3500 196° South 246 283 4,600 -484 Descending Chicago Center
03:57PM 42.0522 -87.3719 194° South 245 282 4,000 -290 Descending Chicago Center
03:58PM 42.0061 -87.4556 233° Southwest 249 287 4,000  Level Chicago Center
03:59PM 42.0019 -87.5414 266° West 240 276 4,000 47 Level Chicago Center
04:00PM 42.0000 -87.6333 268° West 207 238 4,100  Climbing Chicago TRACON
04:01PM 42.0000 -87.7000 270° West 204 235 4,000 -684 Descending Chicago TRACON
04:02PM 42.0000 -87.7667 270° West 181 208 2,800 -1,100 Descending Chicago TRACON
04:03PM 42.0000 -87.8167 270° West 151 174 1,800 -800 Descending Chicago TRACON
04:04PM 42.0000 -87.8667 270° West 134 154 1,200 -600 Descending Chicago TRACON